Location: Winthrop
(48.4780°N, 120.1850°W)
Time: 16:34:08
(UTC-07:00)

Explorer 7 - Pass Details

Date: 05 February 2023
Orbit: 478 x 657 km, 50.3° (Epoch: 30 March)

Event Time Altitude Azimuth Distance (km) Brightness Sun altitude
Rises 09:38:09 0° 182° (S) 2,599 11.0 16.9°
Reaches altitude 10° 09:42:25 10° 137° (SE) 1,773 12.0 17.3°
Maximum altitude 09:42:51 10° 131° (SE) 1,770 11.6 17.4°
Drops below altitude 10° 09:43:18 10° 124° (SE) 1,787 11.2 17.4°
Sets 09:47:46 0° 80° (E) 2,751 10.8 17.9°
